This is the latest recevied weather packets stored in our database for station/object W6SNO-1. If no packets are shown the sender has not sent any weather packets the latest 10 day(s).
| Time | Temp. | Humidity | Pressure | Rain* | Wind** | Luminosity | Snow |
|---|---|---|---|---|---|---|---|
| 1787710921 | 23.33° C | 57% | 1015.7 hPa | 0 mm | - | 28 W/m² | - |
| 1787710618 | 23.33° C | 57% | 1015.9 hPa | 0 mm | - | 28 W/m² | - |
| 1787710317 | 23.33° C | 56% | 1015.8 hPa | 0 mm | - | 24 W/m² | - |
| 1787710013 | 23.89° C | 56% | 1015.8 hPa | 0 mm | - | 24 W/m² | - |
| 1787709708 | 23.89° C | 55% | 1015.5 hPa | 0 mm | - | 27 W/m² | - |
| 1787709404 | 24.44° C | 54% | 1015.8 hPa | 0 mm | - | 39 W/m² | - |
| 1787709099 | 25° C | 54% | 1015.6 hPa | 0 mm | - | 43 W/m² | - |
| 1787708796 | 25° C | 54% | 1015.7 hPa | 0 mm | - | 41 W/m² | - |
| 1787708495 | 25° C | 54% | 1015.7 hPa | 0 mm | - | 48 W/m² | - |
| 1787708191 | 25° C | 54% | 1015.4 hPa | 0 mm | - | 48 W/m² | - |
| 1787707887 | 25.56° C | 53% | 1015.7 hPa | 0 mm | - | 56 W/m² | - |
| 1787707587 | 25.56° C | 53% | 1015.6 hPa | 0 mm | - | 56 W/m² | - |
| 1787707282 | 26.11° C | 52% | 1015.6 hPa | 0 mm | - | 60 W/m² | - |
| 1787706373 | 27.22° C | 46% | 1015.4 hPa | 0 mm | - | 65 W/m² | - |
| 1787706068 | 27.22° C | 46% | 1015.6 hPa | 0 mm | - | 65 W/m² | - |
| 1787704859 | 27.78° C | 46% | 1015.6 hPa | 0 mm | - | 85 W/m² | - |
| 1787704555 | 27.78° C | 46% | 1015.4 hPa | 0 mm | - | 85 W/m² | - |
| 1787704250 | 27.78° C | 46% | 1015.3 hPa | 0 mm | - | 231 W/m² | - |
| 1787703949 | 27.78° C | 47% | 1015.3 hPa | 0 mm | - | 237 W/m² | - |
| 1787703645 | 27.78° C | 47% | 1015.4 hPa | 0 mm | - | 246 W/m² | - |
| 1787703340 | 27.78° C | 47% | 1015.3 hPa | 0 mm | - | 246 W/m² | - |
| 1787703035 | 27.78° C | 47% | 1015.7 hPa | 0 mm | - | 250 W/m² | - |
| 1787702731 | 27.78° C | 46% | 1015.4 hPa | 0 mm | - | 329 W/m² | - |
| 1787702427 | 27.78° C | 46% | 1015.7 hPa | 0 mm | - | 329 W/m² | - |
| 1787702126 | 28.33° C | 44% | 1015.5 hPa | 0 mm | - | 388 W/m² | - |
* Rain latest hour (hover to see other rain measurements)
** Current wind speed in m/s (hover to see current wind gust speed)